• In Hungary
  • List of Countries
  • For 7 days
  • Water Temperature
  • Satellite Maps
  • Weather Map
  • News
  • Weather Widgets
  • user-avatar
    Login

    Hourly Weather Trzcinisko

    Today, 20 September, Thursday

    Time Temperature Precipitation Wind Pressure Humidity
    00:00 +19°C° 0 mm 3 mps 763 mmHg 77%
    01:00 +19°C° 0 mm 3 mps 763 mmHg 74%
    02:00 +19°C° 0 mm 4 mps 763 mmHg 73%
    03:00 +19°C° 0 mm 4 mps 763 mmHg 72%
    04:00 +19°C° 0 mm 4 mps 762 mmHg 70%
    05:00 +19°C° 0 mm 4 mps 763 mmHg 71%
    06:00 +20°C° 0 mm 4 mps 763 mmHg 72%
    07:00 +20°C° 0 mm 4 mps 763 mmHg 72%
    08:00 +22°C° 0 mm 4 mps 763 mmHg 68%
    09:00 +25°C° 0 mm 3 mps 763 mmHg 63%
    10:00 +26°C° 0 mm 3 mps 763 mmHg 58%
    11:00 +27°C° 0 mm 3 mps 763 mmHg 56%
    12:00 +28°C° 0 mm 3 mps 763 mmHg 53%
    13:00 +29°C° 0 mm 3 mps 763 mmHg 50%
    14:00 +29°C° 0 mm 3 mps 763 mmHg 51%
    15:00 +28°C° 0 mm 3 mps 762 mmHg 52%
    16:00 +28°C° 0 mm 3 mps 762 mmHg 53%
    17:00 +26°C° 0 mm 2 mps 762 mmHg 59%
    18:00 +24°C° 0 mm 2 mps 762 mmHg 65%
    19:00 +23°C° 0 mm 2 mps 762 mmHg 70%
    20:00 +21°C° 0 mm 2 mps 762 mmHg 72%
    21:00 +21°C° 0 mm 2 mps 762 mmHg 74%
    22:00 +20°C° 0 mm 3 mps 762 mmHg 75%
    23:00 +20°C° 0 mm 3 mps 761 mmHg 76%

    Tomorrow, 21 September, Friday

    Time Temperature Precipitation Wind Pressure Humidity
    00:00 +20°C° 0 mm 4 mps 761 mmHg 76%
    01:00 +20°C° 0 mm 4 mps 761 mmHg 76%
    02:00 +20°C° 0 mm 4 mps 760 mmHg 74%
    03:00 +20°C° 0 mm 5 mps 760 mmHg 73%
    04:00 +20°C° 0 mm 5 mps 760 mmHg 72%
    05:00 +20°C° 0 mm 5 mps 760 mmHg 70%
    06:00 +21°C° 0 mm 6 mps 759 mmHg 69%
    07:00 +21°C° 0 mm 6 mps 759 mmHg 67%
    08:00 +23°C° 0 mm 7 mps 759 mmHg 60%
    09:00 +26°C° 0 mm 7 mps 758 mmHg 53%
    10:00 +27°C° 0 mm 8 mps 758 mmHg 47%
    11:00 +28°C° 0 mm 8 mps 757 mmHg 45%
    12:00 +29°C° 0 mm 8 mps 757 mmHg 43%
    13:00 +29°C° 0 mm 9 mps 756 mmHg 42%
    14:00 +29°C° 0 mm 8 mps 755 mmHg 43%
    15:00 +29°C° 0 mm 8 mps 754 mmHg 44%
    16:00 +28°C° 0 mm 8 mps 753 mmHg 45%
    17:00 +27°C° 0 mm 8 mps 753 mmHg 49%
    18:00 +24°C° 0 mm 9 mps 754 mmHg 53%
    19:00 +22°C° 0 mm 9 mps 754 mmHg 57%
    20:00 +20°C° 0.9 mm 8 mps 755 mmHg 64%
    21:00 +16°C° 0.9 mm 8 mps 756 mmHg 70%
    22:00 +12°C° 0.9 mm 7 mps 757 mmHg 77%
    23:00 +12°C° 0.2 mm 7 mps 757 mmHg 76%

    Day after tomorrow, 22 September, Saturday

    Time Temperature Precipitation Wind Pressure Humidity
    00:00 +12°C° 0.2 mm 7 mps 758 mmHg 75%
    01:00 +12°C° 0.2 mm 7 mps 758 mmHg 74%
    02:00 +11°C° 0 mm 7 mps 758 mmHg 72%
    03:00 +11°C° 0 mm 7 mps 758 mmHg 70%
    04:00 +11°C° 0 mm 7 mps 758 mmHg 69%
    05:00 +11°C° 0 mm 8 mps 759 mmHg 67%
    06:00 +11°C° 0 mm 8 mps 759 mmHg 66%
    07:00 +11°C° 0 mm 9 mps 759 mmHg 65%
    08:00 +12°C° 0.1 mm 9 mps 759 mmHg 62%
    09:00 +13°C° 0.1 mm 9 mps 759 mmHg 60%
    10:00 +15°C° 0.1 mm 8 mps 760 mmHg 58%
    11:00 +16°C° 0.1 mm 8 mps 760 mmHg 55%
    12:00 +16°C° 0.1 mm 8 mps 760 mmHg 53%
    13:00 +17°C° 0.1 mm 7 mps 760 mmHg 51%
    14:00 +16°C° 0.2 mm 7 mps 760 mmHg 53%
    15:00 +16°C° 0.2 mm 7 mps 760 mmHg 54%
    16:00 +16°C° 0.2 mm 6 mps 760 mmHg 56%
    17:00 +15°C° 0.2 mm 7 mps 760 mmHg 61%
    18:00 +12°C° 0.2 mm 7 mps 760 mmHg 66%
    19:00 +11°C° 0.2 mm 7 mps 760 mmHg 72%
    20:00 +11°C° 0.1 mm 7 mps 760 mmHg 73%
    21:00 +11°C° 0.1 mm 7 mps 760 mmHg 73%
    22:00 +10°C° 0.1 mm 8 mps 760 mmHg 74%
    23:00 +10°C° 0.1 mm 8 mps 760 mmHg 74%

    23 September, Sunday

    Time Temperature Precipitation Wind Pressure Humidity
    00:00 +10°C° 0.1 mm 8 mps 760 mmHg 73%
    01:00 +10°C° 0.1 mm 8 mps 760 mmHg 73%
    02:00 +9°C° 0.1 mm 8 mps 760 mmHg 74%
    03:00 +9°C° 0.1 mm 8 mps 760 mmHg 74%
    04:00 +9°C° 0.1 mm 8 mps 760 mmHg 75%
    05:00 +9°C° 0.1 mm 8 mps 760 mmHg 75%
    06:00 +9°C° 0.1 mm 8 mps 760 mmHg 74%
    07:00 +9°C° 0.1 mm 8 mps 760 mmHg 74%
    08:00 +11°C° 0.1 mm 8 mps 760 mmHg 69%
    09:00 +12°C° 0.1 mm 8 mps 760 mmHg 65%
    10:00 +13°C° 0.1 mm 8 mps 760 mmHg 60%
    11:00 +15°C° 0.1 mm 8 mps 760 mmHg 56%
    12:00 +15°C° 0.1 mm 7 mps 760 mmHg 51%
    13:00 +16°C° 0.1 mm 7 mps 760 mmHg 47%
    14:00 +16°C° 0 mm 6 mps 759 mmHg 48%
    15:00 +16°C° 0 mm 5 mps 759 mmHg 48%
    16:00 +15°C° 0 mm 4 mps 758 mmHg 49%
    17:00 +15°C° 0 mm 4 mps 757 mmHg 51%
    18:00 +14°C° 0 mm 3 mps 757 mmHg 53%
    19:00 +13°C° 0 mm 3 mps 756 mmHg 55%
    20:00 +12°C° 0.4 mm 4 mps 755 mmHg 62%
    21:00 +12°C° 0.4 mm 4 mps 754 mmHg 69%
    22:00 +10°C° 0.4 mm 5 mps 753 mmHg 76%
    23:00 +10°C° 1.8 mm 6 mps 751 mmHg 81%

    24 September, Monday

    Time Temperature Precipitation Wind Pressure Humidity
    00:00 +10°C° 1.8 mm 8 mps 749 mmHg 85%
    01:00 +10°C° 1.8 mm 9 mps 747 mmHg 90%
    02:00 +11°C° 3.2 mm 9 mps 745 mmHg 91%
    03:00 +11°C° 3.2 mm 9 mps 743 mmHg 92%
    04:00 +12°C° 3.2 mm 9 mps 742 mmHg 93%
    05:00 +12°C° 2 mm 8 mps 741 mmHg 89%
    06:00 +13°C° 2 mm 8 mps 739 mmHg 86%
    07:00 +13°C° 2 mm 8 mps 738 mmHg 83%
    08:00 +14°C° 0.2 mm 7 mps 738 mmHg 83%
    09:00 +12°C° 0.2 mm 7 mps 738 mmHg 84%
    10:00 +12°C° 0.2 mm 7 mps 738 mmHg 84%
    11:00 +12°C° 0.9 mm 9 mps 738 mmHg 84%
    12:00 +12°C° 0.9 mm 10 mps 739 mmHg 84%
    13:00 +11°C° 0.9 mm 11 mps 740 mmHg 83%
    14:00 +10°C° 0.6 mm 12 mps 742 mmHg 82%
    15:00 +10°C° 0.6 mm 14 mps 743 mmHg 81%
    16:00 +9°C° 0.6 mm 15 mps 745 mmHg 79%
    17:00 +9°C° 0.7 mm 15 mps 747 mmHg 78%
    18:00 +9°C° 0.7 mm 15 mps 749 mmHg 76%
    19:00 +9°C° 0.7 mm 16 mps 751 mmHg 75%
    20:00 +9°C° 0.4 mm 15 mps 752 mmHg 73%
    21:00 +9°C° 0.4 mm 14 mps 754 mmHg 72%
    22:00 +8°C° 0.4 mm 13 mps 755 mmHg 71%
    23:00 +8°C° 0.2 mm 12 mps 756 mmHg 69%

    25 September, Tuesday

    Time Temperature Precipitation Wind Pressure Humidity
    00:00 +8°C° 0.2 mm 11 mps 757 mmHg 68%
    01:00 +7°C° 0.2 mm 11 mps 757 mmHg 67%
    02:00 +7°C° 0.2 mm 10 mps 758 mmHg 66%
    03:00 +7°C° 0.2 mm 10 mps 759 mmHg 66%
    04:00 +7°C° 0.2 mm 10 mps 759 mmHg 65%
    05:00 +7°C° 0.2 mm 10 mps 760 mmHg 63%
    06:00 +7°C° 0.2 mm 10 mps 761 mmHg 62%
    07:00 +7°C° 0.2 mm 10 mps 761 mmHg 60%
    08:00 +8°C° 0.2 mm 10 mps 762 mmHg 56%
    09:00 +9°C° 0.2 mm 11 mps 763 mmHg 52%
    10:00 +11°C° 0.2 mm 11 mps 763 mmHg 48%
    11:00 +11°C° 0.1 mm 11 mps 764 mmHg 46%
    12:00 +11°C° 0.1 mm 11 mps 765 mmHg 45%
    13:00 +11°C° 0.1 mm 11 mps 765 mmHg 43%
    14:00 +11°C° 0.1 mm 10 mps 765 mmHg 44%
    15:00 +11°C° 0.1 mm 10 mps 766 mmHg 45%
    16:00 +10°C° 0.1 mm 9 mps 766 mmHg 46%
    17:00 +10°C° 0 mm 8 mps 767 mmHg 48%
    18:00 +9°C° 0 mm 7 mps 767 mmHg 51%
    19:00 +8°C° 0 mm 6 mps 767 mmHg 54%
    20:00 +8°C° 0 mm 6 mps 767 mmHg 57%
    21:00 +7°C° 0 mm 6 mps 768 mmHg 59%
    22:00 +7°C° 0 mm 6 mps 768 mmHg 61%
    23:00 +7°C° 0 mm 5 mps 768 mmHg 65%
    Show more